Location: Newark
(48.6461°N, 4.3644°W)
Time: 19:08:12
(UTC+00:00)

Transit 4A - Pass Details

Date: 27 January 2020
Orbit: 872 x 973 km, 66.8° (Epoch: 19 February)

Event Time Altitude Azimuth Distance (km) Brightness Sun altitude
Rises 06:21:01 0° 203° (SSW) 3,543 10.8 -15.3°
Reaches altitude 10° 06:23:34 10° 200° (SSW) 2,590 10.1 -14.9°
Maximum altitude 06:29:29 66° 120° (ESE) 974 8.3 -13.9°
Drops below altitude 10° 06:35:19 10° 40° (NE) 2,548 10.5 -13.0°
Sets 06:37:48 0° 37° (NE) 3,483 11.2 -12.6°
